APJ541 RJAA-RJKA

Flight info

Callsign APJ541
Flight time 2h 35m
Altitude 38000
Route SAMUS Y84 HCE Y86 YULIA Y293 TONAR Y521 TUMGI
Aircraft A20N/M-SDE2E3FGHIRWXY/LB1

Departure

Time 2026-04-18 03:00
Airport Narita International Airport (RJAA)

Arrival

Time 2026-04-18 05:35
Airport Amami Airport (RJKA)
Time Latitude Longitude Altitude Speed Heading
2026-04-18 02:40 35.75012 140.39116 135 ft 0 kts 60°
2026-04-18 02:50 35.75007 140.39105 135 ft 2 kts 59°
2026-04-18 02:50 35.75001 140.39093 135 ft 2 kts 59°
2026-04-18 02:50 35.74993 140.39076 135 ft 2 kts 59°
2026-04-18 02:51 35.74985 140.39061 135 ft 2 kts 59°
2026-04-18 02:51 35.74978 140.39044 135 ft 2 kts 59°
2026-04-18 02:51 35.74970 140.39029 136 ft 2 kts 59°
2026-04-18 02:51 35.74966 140.39018 137 ft 1 kts 51°
2026-04-18 02:52 35.74953 140.39011 137 ft 2 kts 359°
2026-04-18 02:52 35.74944 140.39012 137 ft 1 kts 329°
2026-04-18 02:52 35.74939 140.39017 137 ft 0 kts 329°
2026-04-18 02:54 35.74943 140.39014 137 ft 1 kts 329°
2026-04-18 02:54 35.74963 140.39000 137 ft 4 kts 322°
2026-04-18 02:55 35.74975 140.38963 137 ft 4 kts 268°
2026-04-18 02:55 35.74967 140.38933 138 ft 2 kts 234°
2026-04-18 02:55 35.74954 140.38917 138 ft 2 kts 218°
2026-04-18 02:55 35.74936 140.38911 138 ft 3 kts 194°
2026-04-18 02:56 35.74909 140.38913 138 ft 5 kts 158°
2026-04-18 02:56 35.74857 140.38948 139 ft 11 kts 149°
2026-04-18 02:56 35.74678 140.39078 131 ft 18 kts 147°
2026-04-18 02:57 35.74550 140.39169 123 ft 20 kts 150°
2026-04-18 02:57 35.74455 140.39226 122 ft 9 kts 175°
2026-04-18 02:57 35.74409 140.39201 124 ft 5 kts 233°
2026-04-18 02:57 35.74394 140.39169 126 ft 2 kts 239°
2026-04-18 02:58 35.74383 140.39146 127 ft 6 kts 239°
2026-04-18 02:58 35.74366 140.39111 130 ft 2 kts 239°
2026-04-18 02:58 35.74359 140.39096 131 ft 3 kts 242°
2026-04-18 02:58 35.74394 140.39021 131 ft 14 kts 340°
2026-04-18 02:59 35.74491 140.38956 131 ft 27 kts 328°
2026-04-18 02:59 35.74873 140.38681 141 ft 97 kts 328°
2026-04-18 02:59 35.75655 140.38117 140 ft 158 kts 330°
2026-04-18 02:59 35.76721 140.37344 338 ft 188 kts 327°
2026-04-18 03:00 35.77924 140.36523 669 ft 211 kts 331°
2026-04-18 03:00 35.79312 140.35671 1087 ft 235 kts 333°
2026-04-18 03:00 35.80890 140.34784 1592 ft 257 kts 335°
2026-04-18 03:00 35.82522 140.33791 2312 ft 266 kts 330°
2026-04-18 03:01 35.84140 140.32719 3140 ft 267 kts 330°
2026-04-18 03:01 35.85741 140.31465 3889 ft 272 kts 321°
2026-04-18 03:01 35.87262 140.30077 4688 ft 275 kts 321°
2026-04-18 03:01 35.88833 140.28743 5532 ft 277 kts 323°
2026-04-18 03:02 35.90461 140.27466 6350 ft 280 kts 324°
2026-04-18 03:02 35.92131 140.26216 7168 ft 282 kts 325°
2026-04-18 03:02 35.93822 140.24980 7962 ft 285 kts 325°
2026-04-18 03:02 35.95532 140.23738 8741 ft 289 kts 324°
2026-04-18 03:03 35.97401 140.22719 9487 ft 302 kts 345°
2026-04-18 03:03 35.99548 140.22865 10217 ft 317 kts 15°
2026-04-18 03:03 36.01477 140.24263 10752 ft 334 kts 41°
2026-04-18 03:03 36.03129 140.26360 11129 ft 352 kts 53°
2026-04-18 03:04 36.04243 140.29115 11474 ft 365 kts 77°
2026-04-18 03:04 36.04486 140.32246 12117 ft 366 kts 94°
2026-04-18 03:04 36.04422 140.35414 12855 ft 369 kts 95°
2026-04-18 03:04 36.04358 140.38574 13523 ft 374 kts 94°
2026-04-18 03:05 36.04234 140.41818 14161 ft 376 kts 102°
2026-04-18 03:05 36.03547 140.44919 14807 ft 373 kts 118°
2026-04-18 03:05 36.02333 140.47700 15478 ft 370 kts 127°
2026-04-18 03:05 36.00939 140.50442 16100 ft 374 kts 128°
2026-04-18 03:06 35.99463 140.53065 16718 ft 375 kts 133°
2026-04-18 03:06 35.97792 140.55583 17318 ft 376 kts 137°
2026-04-18 03:06 35.96006 140.57944 17898 ft 379 kts 139°
2026-04-18 03:06 35.94165 140.60329 18490 ft 383 kts 139°
2026-04-18 03:07 35.92336 140.62705 19048 ft 388 kts 139°
2026-04-18 03:07 35.90446 140.65138 19598 ft 391 kts 142°
2026-04-18 03:07 35.88397 140.67355 20108 ft 390 kts 149°
2026-04-18 03:07 35.86176 140.69258 20597 ft 390 kts 155°
2026-04-18 03:08 35.83828 140.70982 21065 ft 394 kts 157°
2026-04-18 03:08 35.81423 140.72693 21529 ft 399 kts 157°
2026-04-18 03:08 35.78995 140.74422 22023 ft 402 kts 157°
2026-04-18 03:08 35.76567 140.76160 22483 ft 406 kts 157°
2026-04-18 03:09 35.74103 140.77927 22895 ft 411 kts 158°
2026-04-18 03:09 35.71581 140.79573 23330 ft 412 kts 162°
2026-04-18 03:09 35.68939 140.81018 23801 ft 410 kts 166°
2026-04-18 03:09 35.66264 140.82234 24288 ft 410 kts 169°
2026-04-18 03:10 35.63585 140.83391 24778 ft 411 kts 169°
2026-04-18 03:10 35.60851 140.84566 25249 ft 413 kts 169°
2026-04-18 03:10 35.58154 140.85725 25685 ft 415 kts 169°
2026-04-18 03:10 35.55403 140.86909 26128 ft 417 kts 169°
2026-04-18 03:11 35.52620 140.88110 26550 ft 419 kts 169°
2026-04-18 03:11 35.49867 140.89299 26971 ft 421 kts 169°
2026-04-18 03:11 35.47095 140.90495 27354 ft 423 kts 170°
2026-04-18 03:11 35.44288 140.91702 27705 ft 426 kts 170°
2026-04-18 03:12 35.41485 140.92909 28065 ft 428 kts 170°
2026-04-18 03:12 35.38645 140.94133 28406 ft 431 kts 170°
2026-04-18 03:12 35.35812 140.95352 28778 ft 432 kts 170°
2026-04-18 03:12 35.32938 140.96587 29127 ft 434 kts 170°
2026-04-18 03:13 35.30094 140.97809 29462 ft 436 kts 171°
2026-04-18 03:13 35.27201 140.99051 29734 ft 439 kts 171°
2026-04-18 03:13 35.24283 141.00195 30037 ft 437 kts 174°
2026-04-18 03:13 35.21337 141.01123 30322 ft 435 kts 178°
2026-04-18 03:14 35.18356 141.01833 30635 ft 432 kts 181°
2026-04-18 03:14 35.15350 141.02325 30956 ft 428 kts 184°
2026-04-18 03:14 35.12412 141.02605 31226 ft 427 kts 187°
2026-04-18 03:14 35.09421 141.02838 31568 ft 427 kts 187°
2026-04-18 03:15 35.06467 141.03070 31942 ft 426 kts 187°
2026-04-18 03:15 35.03481 141.03305 32310 ft 425 kts 187°
2026-04-18 03:15 35.00529 141.03537 32631 ft 425 kts 187°
2026-04-18 03:15 34.97567 141.03767 32900 ft 425 kts 187°
2026-04-18 03:16 34.94613 141.03999 33232 ft 425 kts 187°
2026-04-18 03:16 34.91655 141.04233 33513 ft 424 kts 187°
2026-04-18 03:16 34.88661 141.04468 33812 ft 423 kts 187°
2026-04-18 03:16 34.85702 141.04700 34101 ft 422 kts 187°
2026-04-18 03:17 34.82758 141.04930 34362 ft 422 kts 188°
2026-04-18 03:17 34.79826 141.05160 34615 ft 422 kts 188°
2026-04-18 03:17 34.76899 141.05388 34868 ft 421 kts 188°
2026-04-18 03:17 34.73952 141.05618 35153 ft 419 kts 188°
2026-04-18 03:18 34.71059 141.05844 35438 ft 417 kts 188°
2026-04-18 03:18 34.68126 141.06073 35679 ft 416 kts 188°
2026-04-18 03:18 34.65246 141.06189 35841 ft 409 kts 194°
2026-04-18 03:18 34.62443 141.05856 35961 ft 399 kts 200°
2026-04-18 03:19 34.57236 141.04065 35963 ft 381 kts 213°
2026-04-18 03:19 34.52715 141.00963 35962 ft 367 kts 225°
2026-04-18 03:20 34.48940 140.96942 35965 ft 360 kts 230°
2026-04-18 03:20 34.45301 140.92729 35960 ft 361 kts 231°
2026-04-18 03:21 34.41667 140.88493 35962 ft 361 kts 231°
2026-04-18 03:21 34.38065 140.84299 35957 ft 361 kts 231°
2026-04-18 03:22 34.34405 140.80034 35960 ft 361 kts 231°
2026-04-18 03:22 34.30788 140.75833 35954 ft 361 kts 231°
2026-04-18 03:23 34.27142 140.71605 35954 ft 361 kts 231°
2026-04-18 03:23 34.23526 140.67416 35956 ft 360 kts 231°
2026-04-18 03:24 34.19872 140.63188 35954 ft 361 kts 231°
2026-04-18 03:24 34.16228 140.58978 35953 ft 361 kts 231°
2026-04-18 03:25 34.12597 140.54787 35952 ft 361 kts 231°
2026-04-18 03:25 34.08958 140.50594 35950 ft 362 kts 231°
2026-04-18 03:26 34.05308 140.46390 35954 ft 362 kts 231°
2026-04-18 03:26 34.01659 140.42194 35952 ft 362 kts 231°
2026-04-18 03:27 33.98006 140.37997 35953 ft 362 kts 231°
2026-04-18 03:27 33.94371 140.33826 35955 ft 362 kts 231°
2026-04-18 03:28 33.90672 140.29588 35953 ft 363 kts 231°
2026-04-18 03:28 33.86905 140.25520 35953 ft 367 kts 227°
2026-04-18 03:29 33.82784 140.21838 35951 ft 371 kts 222°
2026-04-18 03:29 33.78288 140.18567 35951 ft 378 kts 217°
2026-04-18 03:30 33.73555 140.15691 35950 ft 380 kts 216°
2026-04-18 03:30 33.68830 140.12854 35947 ft 380 kts 216°
2026-04-18 03:31 33.64055 140.10001 35947 ft 381 kts 216°
2026-04-18 03:31 33.59277 140.07152 35949 ft 381 kts 216°
2026-04-18 03:32 33.54529 140.04327 35946 ft 381 kts 216°
2026-04-18 03:32 33.49739 140.01483 35947 ft 382 kts 216°
2026-04-18 03:33 33.44970 139.98653 35942 ft 381 kts 216°
2026-04-18 03:33 33.40195 139.95825 35941 ft 381 kts 216°
2026-04-18 03:34 33.35442 139.93015 35941 ft 381 kts 216°
2026-04-18 03:34 33.30687 139.90204 35942 ft 381 kts 216°
2026-04-18 03:35 33.25881 139.87369 35937 ft 382 kts 216°
2026-04-18 03:35 33.21117 139.84561 35940 ft 381 kts 216°
2026-04-18 03:36 33.16613 139.81377 35939 ft 370 kts 226°
2026-04-18 03:36 33.12892 139.77193 35935 ft 361 kts 236°
2026-04-18 03:37 33.10089 139.72296 35934 ft 355 kts 246°
2026-04-18 03:37 33.08208 139.66899 35938 ft 351 kts 253°
2026-04-18 03:38 33.06642 139.61343 35937 ft 352 kts 253°
2026-04-18 03:38 33.05106 139.55833 35936 ft 352 kts 253°
2026-04-18 03:39 33.03561 139.50264 35937 ft 351 kts 253°
2026-04-18 03:39 33.02023 139.44722 35937 ft 351 kts 253°
2026-04-18 03:40 33.00490 139.39204 35937 ft 351 kts 253°
2026-04-18 03:40 32.98950 139.33667 35938 ft 352 kts 253°
2026-04-18 03:41 32.97409 139.28130 35941 ft 352 kts 253°
2026-04-18 03:41 32.95867 139.22588 35940 ft 352 kts 253°
2026-04-18 03:42 32.94321 139.17065 35936 ft 352 kts 253°
2026-04-18 03:42 32.92776 139.11548 35926 ft 352 kts 253°
2026-04-18 03:43 32.91220 139.05997 35918 ft 352 kts 253°
2026-04-18 03:43 32.89660 139.00446 35915 ft 353 kts 253°
2026-04-18 03:44 32.88096 138.94897 35916 ft 353 kts 253°
2026-04-18 03:44 32.86531 138.89342 35914 ft 352 kts 253°
2026-04-18 03:45 32.84964 138.83800 35915 ft 352 kts 253°
2026-04-18 03:45 32.83411 138.78325 35915 ft 352 kts 253°
2026-04-18 03:46 32.81838 138.72768 35918 ft 351 kts 253°
2026-04-18 03:46 32.80280 138.67302 35920 ft 351 kts 253°
2026-04-18 03:47 32.78696 138.61737 35921 ft 352 kts 253°
2026-04-18 03:47 32.77128 138.56230 35922 ft 352 kts 253°
2026-04-18 03:48 32.75558 138.50732 35919 ft 352 kts 253°
2026-04-18 03:48 32.73976 138.45213 35922 ft 352 kts 253°
2026-04-18 03:49 32.72403 138.39729 35922 ft 352 kts 253°
2026-04-18 03:49 32.70819 138.34213 35924 ft 352 kts 253°
2026-04-18 03:50 32.69226 138.28682 35923 ft 352 kts 253°
2026-04-18 03:50 32.67645 138.23193 35925 ft 352 kts 253°
2026-04-18 03:51 32.66052 138.17679 35930 ft 352 kts 252°
2026-04-18 03:51 32.64466 138.12204 35931 ft 352 kts 253°
2026-04-18 03:52 32.62864 138.06674 35929 ft 352 kts 253°
2026-04-18 03:52 32.61277 138.01210 35927 ft 352 kts 253°
2026-04-18 03:53 32.59669 137.95686 35926 ft 352 kts 253°
2026-04-18 03:53 32.58063 137.90178 35927 ft 352 kts 252°
2026-04-18 03:54 32.56448 137.84662 35924 ft 352 kts 253°
2026-04-18 03:54 32.54844 137.79176 35923 ft 352 kts 252°
2026-04-18 03:55 32.53238 137.73702 35926 ft 352 kts 252°
2026-04-18 03:55 32.51624 137.68214 35923 ft 352 kts 252°
2026-04-18 03:56 32.50005 137.62712 35926 ft 352 kts 252°
2026-04-18 03:56 32.48397 137.57256 35924 ft 352 kts 252°
2026-04-18 03:57 32.45964 137.49025 35923 ft 352 kts 252°
2026-04-18 03:58 32.44342 137.43553 35922 ft 352 kts 252°
2026-04-18 03:58 32.42722 137.38089 35922 ft 352 kts 252°
2026-04-18 03:59 32.41087 137.32585 35924 ft 353 kts 252°
2026-04-18 03:59 32.39456 137.27107 35921 ft 353 kts 252°
2026-04-18 04:00 32.37820 137.21625 35923 ft 352 kts 252°
2026-04-18 04:00 32.36183 137.16144 35923 ft 353 kts 252°
2026-04-18 04:01 32.34547 137.10672 35921 ft 353 kts 251°
2026-04-18 04:01 32.32912 137.05211 35919 ft 353 kts 251°
2026-04-18 04:02 32.31263 136.99718 35923 ft 353 kts 251°
2026-04-18 04:02 32.29620 136.94255 35920 ft 353 kts 252°
2026-04-18 04:03 32.27976 136.88797 35919 ft 354 kts 251°
2026-04-18 04:03 32.26324 136.83331 35918 ft 354 kts 251°
2026-04-18 04:04 32.24663 136.77838 35920 ft 354 kts 251°
2026-04-18 04:04 32.23006 136.72380 35918 ft 354 kts 251°
2026-04-18 04:05 32.21346 136.66911 35917 ft 353 kts 252°
2026-04-18 04:05 32.19678 136.61430 35914 ft 354 kts 252°
2026-04-18 04:06 32.18011 136.55955 35906 ft 354 kts 251°
2026-04-18 04:06 32.16348 136.50507 35905 ft 353 kts 251°
2026-04-18 04:07 32.14675 136.45036 35902 ft 352 kts 251°
2026-04-18 04:07 32.13018 136.39618 35899 ft 353 kts 251°
2026-04-18 04:08 32.11336 136.34139 35902 ft 353 kts 251°
2026-04-18 04:08 32.09661 136.28687 35897 ft 353 kts 251°
2026-04-18 04:09 32.07990 136.23259 35897 ft 353 kts 251°
2026-04-18 04:09 32.06307 136.17804 35897 ft 354 kts 251°
2026-04-18 04:10 32.04621 136.12349 35897 ft 354 kts 251°
2026-04-18 04:10 32.03211 136.07790 35894 ft 353 kts 250°
2026-04-18 04:11 32.01249 136.01468 35896 ft 353 kts 250°
2026-04-18 04:11 31.99559 135.96033 35895 ft 353 kts 251°
2026-04-18 04:12 31.97870 135.90604 35895 ft 352 kts 250°
2026-04-18 04:12 31.96177 135.85175 35895 ft 352 kts 251°
2026-04-18 04:13 31.94480 135.79739 35894 ft 353 kts 250°
2026-04-18 04:13 31.92785 135.74321 35894 ft 353 kts 250°
2026-04-18 04:14 31.91079 135.68883 35894 ft 353 kts 250°
2026-04-18 04:14 31.89387 135.63495 35894 ft 353 kts 251°
2026-04-18 04:15 31.87678 135.58057 35894 ft 353 kts 250°
2026-04-18 04:15 31.85973 135.52649 35894 ft 353 kts 250°
2026-04-18 04:16 31.84256 135.47206 35894 ft 353 kts 251°
2026-04-18 04:16 31.82546 135.41789 35894 ft 354 kts 250°
2026-04-18 04:17 31.80824 135.36356 35894 ft 354 kts 250°
2026-04-18 04:17 31.79098 135.30919 35895 ft 354 kts 250°
2026-04-18 04:18 31.77369 135.25475 35894 ft 354 kts 250°
2026-04-18 04:18 31.75641 135.20055 35894 ft 355 kts 250°
2026-04-18 04:19 31.73903 135.14598 35893 ft 355 kts 250°
2026-04-18 04:19 31.71965 135.09241 35892 ft 356 kts 245°
2026-04-18 04:20 31.69611 135.04115 35894 ft 357 kts 241°
2026-04-18 04:20 31.66902 134.99165 35893 ft 357 kts 239°
2026-04-18 04:21 31.64185 134.94279 35895 ft 358 kts 239°
2026-04-18 04:21 31.61452 134.89386 35894 ft 358 kts 239°
2026-04-18 04:22 31.58709 134.84486 35889 ft 358 kts 239°
2026-04-18 04:22 31.55971 134.79610 35887 ft 358 kts 239°
2026-04-18 04:23 31.53219 134.74713 35892 ft 358 kts 239°
2026-04-18 04:23 31.50469 134.69830 35894 ft 358 kts 239°
2026-04-18 04:24 31.47730 134.64972 35894 ft 358 kts 239°
2026-04-18 04:24 31.44978 134.60095 35894 ft 358 kts 239°
2026-04-18 04:25 31.42205 134.55188 35894 ft 358 kts 239°
2026-04-18 04:25 31.39465 134.50345 35894 ft 358 kts 239°
2026-04-18 04:26 31.36713 134.45487 35894 ft 358 kts 239°
2026-04-18 04:26 31.33948 134.40614 35895 ft 358 kts 239°
2026-04-18 04:27 31.31171 134.35724 35894 ft 358 kts 239°
2026-04-18 04:27 31.28412 134.30878 35896 ft 359 kts 238°
2026-04-18 04:28 31.25626 134.25983 35896 ft 358 kts 238°
2026-04-18 04:28 31.22849 134.21117 35896 ft 358 kts 238°
2026-04-18 04:29 31.20081 134.16267 35896 ft 358 kts 239°
2026-04-18 04:29 31.17321 134.11438 35897 ft 358 kts 239°
2026-04-18 04:30 31.14519 134.06541 35897 ft 358 kts 238°
2026-04-18 04:30 31.11755 134.01718 35897 ft 358 kts 238°
2026-04-18 04:31 31.08967 133.96857 35896 ft 359 kts 238°
2026-04-18 04:31 31.06180 133.92006 35895 ft 359 kts 238°
2026-04-18 04:32 31.03382 133.87144 35896 ft 359 kts 238°
2026-04-18 04:32 31.00606 133.82320 35895 ft 359 kts 238°
2026-04-18 04:33 30.97795 133.77447 35891 ft 359 kts 238°
2026-04-18 04:33 30.95016 133.72635 35878 ft 360 kts 238°
2026-04-18 04:34 30.92193 133.67754 35877 ft 360 kts 238°
2026-04-18 04:34 30.89403 133.62924 35874 ft 360 kts 238°
2026-04-18 04:35 30.86580 133.58050 35872 ft 360 kts 238°
2026-04-18 04:35 30.83779 133.53218 35870 ft 361 kts 238°
2026-04-18 04:36 30.80963 133.48369 35870 ft 360 kts 238°
2026-04-18 04:36 30.78165 133.43553 35870 ft 361 kts 238°
2026-04-18 04:37 30.75347 133.38713 35873 ft 361 kts 238°
2026-04-18 04:37 30.72533 133.33884 35874 ft 361 kts 238°
2026-04-18 04:38 30.69716 133.29054 35875 ft 361 kts 238°
2026-04-18 04:38 30.66891 133.24217 35870 ft 360 kts 238°
2026-04-18 04:39 30.64091 133.19432 35875 ft 360 kts 238°
2026-04-18 04:39 30.61283 133.14633 35870 ft 360 kts 238°
2026-04-18 04:40 30.58459 133.09816 35872 ft 361 kts 238°
2026-04-18 04:40 30.55626 133.04988 35869 ft 361 kts 238°
2026-04-18 04:41 30.52793 133.00169 35870 ft 362 kts 238°
2026-04-18 04:41 30.49908 132.95265 35873 ft 362 kts 237°
2026-04-18 04:42 30.47037 132.90392 35874 ft 361 kts 238°
2026-04-18 04:42 30.44188 132.85562 35868 ft 361 kts 238°
2026-04-18 04:43 30.41332 132.80722 35867 ft 362 kts 237°
2026-04-18 04:43 30.38505 132.75941 35732 ft 357 kts 238°
2026-04-18 04:43 30.37107 132.73581 35189 ft 356 kts 238°
2026-04-18 04:44 30.35706 132.71216 34361 ft 361 kts 238°
2026-04-18 04:44 30.34267 132.68788 33456 ft 366 kts 238°
2026-04-18 04:44 30.32834 132.66370 32638 ft 369 kts 238°
2026-04-18 04:44 30.31378 132.63913 32162 ft 373 kts 238°
2026-04-18 04:45 30.29896 132.61414 31979 ft 375 kts 238°
2026-04-18 04:45 30.26935 132.56427 31974 ft 377 kts 238°
2026-04-18 04:46 30.23965 132.51437 31975 ft 377 kts 238°
2026-04-18 04:46 30.20997 132.46454 31974 ft 376 kts 238°
2026-04-18 04:47 30.18009 132.41446 31979 ft 377 kts 238°
2026-04-18 04:47 30.15035 132.36462 31978 ft 378 kts 238°
2026-04-18 04:48 30.12037 132.31448 31975 ft 378 kts 237°
2026-04-18 04:48 30.09039 132.26437 31965 ft 378 kts 238°
2026-04-18 04:49 30.06057 132.21462 31964 ft 379 kts 237°
2026-04-18 04:49 30.03052 132.16452 31960 ft 378 kts 238°
2026-04-18 04:50 30.00045 132.11444 31954 ft 379 kts 237°
2026-04-18 04:50 29.97048 132.06467 31956 ft 379 kts 237°
2026-04-18 04:51 29.94038 132.01466 31956 ft 379 kts 237°
2026-04-18 04:51 29.91053 131.96516 31950 ft 378 kts 237°
2026-04-18 04:52 29.88053 131.91548 31956 ft 378 kts 237°
2026-04-18 04:52 29.85041 131.86565 31949 ft 378 kts 237°
2026-04-18 04:53 29.82045 131.81604 31952 ft 377 kts 238°
2026-04-18 04:53 29.79211 131.76492 31954 ft 377 kts 239°
2026-04-18 04:54 29.76411 131.71417 31951 ft 378 kts 240°
2026-04-18 04:54 29.73591 131.66306 31952 ft 378 kts 239°
2026-04-18 04:55 29.70769 131.61195 31955 ft 377 kts 240°
2026-04-18 04:55 29.67960 131.56114 31952 ft 377 kts 239°
2026-04-18 04:56 29.63723 131.48462 31952 ft 377 kts 239°
2026-04-18 04:56 29.60909 131.43387 31948 ft 377 kts 239°
2026-04-18 04:57 29.58098 131.38329 31676 ft 369 kts 240°
2026-04-18 04:57 29.56723 131.35851 31433 ft 368 kts 240°
2026-04-18 04:57 29.55359 131.33398 31195 ft 369 kts 239°
2026-04-18 04:58 29.53980 131.30916 30949 ft 369 kts 239°
2026-04-18 04:58 29.52598 131.28435 30702 ft 370 kts 239°
2026-04-18 04:58 29.51207 131.25935 30453 ft 371 kts 239°
2026-04-18 04:58 29.49809 131.23428 30207 ft 372 kts 239°
2026-04-18 04:59 29.48424 131.20943 29963 ft 373 kts 239°
2026-04-18 04:59 29.47028 131.18440 29718 ft 373 kts 239°
2026-04-18 04:59 29.45626 131.15930 29473 ft 374 kts 239°
2026-04-18 04:59 29.44212 131.13399 29224 ft 376 kts 239°
2026-04-18 05:00 29.42787 131.10851 28977 ft 377 kts 239°
2026-04-18 05:00 29.41379 131.08334 28734 ft 378 kts 238°
2026-04-18 05:00 29.39961 131.05801 28461 ft 380 kts 239°
2026-04-18 05:00 29.38514 131.03220 27993 ft 382 kts 239°
2026-04-18 05:01 29.37086 131.00673 27362 ft 384 kts 239°
2026-04-18 05:01 29.35631 130.98076 26580 ft 388 kts 239°
2026-04-18 05:01 29.34173 130.95479 25863 ft 390 kts 239°
2026-04-18 05:01 29.32708 130.92873 25277 ft 388 kts 239°
2026-04-18 05:02 29.31246 130.90268 24693 ft 387 kts 239°
2026-04-18 05:02 29.29806 130.87712 24138 ft 385 kts 239°
2026-04-18 05:02 29.28354 130.85129 23573 ft 384 kts 239°
2026-04-18 05:02 29.26899 130.82546 23000 ft 383 kts 239°
2026-04-18 05:03 29.25470 130.80009 22439 ft 382 kts 239°
2026-04-18 05:03 29.24027 130.77449 21882 ft 381 kts 239°
2026-04-18 05:03 29.22597 130.74913 21308 ft 381 kts 239°
2026-04-18 05:03 29.21165 130.72374 20720 ft 381 kts 239°
2026-04-18 05:04 29.19725 130.69821 20131 ft 380 kts 239°
2026-04-18 05:04 29.18283 130.67267 19542 ft 380 kts 239°
2026-04-18 05:04 29.16859 130.64746 18962 ft 380 kts 239°
2026-04-18 05:04 29.15410 130.62186 18373 ft 379 kts 239°
2026-04-18 05:05 29.14000 130.59697 17820 ft 378 kts 239°
2026-04-18 05:05 29.12564 130.57164 17250 ft 377 kts 239°
2026-04-18 05:05 29.11149 130.54668 16715 ft 375 kts 239°
2026-04-18 05:05 29.09719 130.52147 16214 ft 371 kts 239°
2026-04-18 05:06 29.08933 130.50761 16036 ft 366 kts 238°
2026-04-18 05:22 29.08859 130.50632 16023 ft 365 kts 238°
2026-04-18 05:22 29.07481 130.48204 15939 ft 360 kts 238°
2026-04-18 05:22 29.06117 130.45802 15925 ft 360 kts 238°
2026-04-18 05:23 29.04753 130.43404 15535 ft 360 kts 238°
2026-04-18 05:23 29.03387 130.40999 14692 ft 368 kts 238°
2026-04-18 05:23 29.01975 130.38515 13965 ft 370 kts 238°
2026-04-18 05:23 29.00580 130.36066 13412 ft 368 kts 238°
2026-04-18 05:24 28.99182 130.33617 12848 ft 365 kts 238°
2026-04-18 05:24 28.97810 130.31210 12273 ft 363 kts 237°
2026-04-18 05:24 28.96431 130.28795 11754 ft 359 kts 237°
2026-04-18 05:24 28.95077 130.26427 11235 ft 356 kts 237°
2026-04-18 05:25 28.93725 130.24063 10848 ft 349 kts 238°
2026-04-18 05:25 28.92417 130.21779 10476 ft 342 kts 238°
2026-04-18 05:25 28.91116 130.19502 10137 ft 335 kts 238°
2026-04-18 05:25 28.89870 130.17320 9942 ft 323 kts 237°
2026-04-18 05:26 28.88655 130.15196 9724 ft 313 kts 237°
2026-04-18 05:26 28.87470 130.13127 9405 ft 307 kts 237°
2026-04-18 05:26 28.86323 130.11128 9106 ft 301 kts 237°
2026-04-18 05:26 28.85173 130.09120 8774 ft 297 kts 237°
2026-04-18 05:27 28.84058 130.07175 8452 ft 292 kts 237°
2026-04-18 05:27 28.82950 130.05244 8135 ft 287 kts 237°
2026-04-18 05:27 28.81867 130.03360 7824 ft 283 kts 237°
2026-04-18 05:27 28.80800 130.01503 7519 ft 278 kts 237°
2026-04-18 05:28 28.79740 129.99660 7215 ft 274 kts 237°
2026-04-18 05:28 28.78705 129.97858 6915 ft 270 kts 237°
2026-04-18 05:28 28.77671 129.96060 6573 ft 267 kts 237°
2026-04-18 05:28 28.76661 129.94304 6210 ft 266 kts 236°
2026-04-18 05:29 28.75637 129.92525 5835 ft 266 kts 236°
2026-04-18 05:29 28.74620 129.90761 5461 ft 265 kts 236°
2026-04-18 05:29 28.73544 129.89032 4992 ft 268 kts 227°
2026-04-18 05:29 28.72132 129.87697 4599 ft 267 kts 211°
2026-04-18 05:30 28.70491 129.86688 4242 ft 265 kts 206°
2026-04-18 05:30 28.68839 129.85744 4008 ft 258 kts 206°
2026-04-18 05:30 28.67220 129.84816 3993 ft 260 kts 206°
2026-04-18 05:30 28.65639 129.83907 3989 ft 250 kts 206°
2026-04-18 05:31 28.64107 129.83015 3988 ft 234 kts 206°
2026-04-18 05:31 28.62706 129.82199 3986 ft 224 kts 206°
2026-04-18 05:31 28.61313 129.81386 3757 ft 222 kts 206°
2026-04-18 05:31 28.59933 129.80579 3421 ft 224 kts 206°
2026-04-18 05:32 28.58542 129.79778 3141 ft 223 kts 205°
2026-04-18 05:32 28.57140 129.78995 2864 ft 222 kts 204°
2026-04-18 05:32 28.55750 129.78230 2632 ft 218 kts 204°
2026-04-18 05:32 28.54409 129.77492 2488 ft 211 kts 203°
2026-04-18 05:33 28.53096 129.76772 2260 ft 204 kts 203°
2026-04-18 05:33 28.51809 129.76064 1869 ft 202 kts 202°
2026-04-18 05:33 28.50552 129.75374 1520 ft 204 kts 202°
2026-04-18 05:33 28.49284 129.74677 1024 ft 200 kts 204°
2026-04-18 05:34 28.48058 129.73946 776 ft 194 kts 206°
2026-04-18 05:34 28.46917 129.73276 469 ft 178 kts 200°
2026-04-18 05:34 28.45842 129.72682 469 ft 166 kts 203°
2026-04-18 05:34 28.44804 129.72189 320 ft 158 kts 200°
2026-04-18 05:35 28.43831 129.71678 56 ft 147 kts 202°
2026-04-18 05:35 28.43050 129.71252 21 ft 87 kts 204°
2026-04-18 05:35 28.42741 129.71077 24 ft 30 kts 204°
2026-04-18 05:35 28.42693 129.70953 26 ft 15 kts 285°
2026-04-18 05:36 28.42734 129.70875 25 ft 8 kts 357°
2026-04-18 05:36 28.42798 129.70900 24 ft 11 kts 27°
2026-04-18 05:36 28.42876 129.70944 22 ft 13 kts 25°
2026-04-18 05:36 28.42963 129.70990 22 ft 14 kts 26°
2026-04-18 05:37 28.43052 129.71042 22 ft 14 kts 27°
2026-04-18 05:37 28.43121 129.71017 23 ft 11 kts 297°
2026-04-18 05:37 28.43159 129.70927 22 ft 11 kts 295°
2026-04-18 05:37 28.43162 129.70920 23 ft 0 kts 295°